Regional Weather Roundup
Issued by NWS Grand Forks, ND

Home | Current Version | Previous Version | Graphics & Text | Print | Product List | Glossary On
Versions: 1 2 3 4 5 6 7 8 9 10 11 12 13 14 15 16 17 18 19 20 21 22 23 24 25 26 27 28 29 30 31 32 33 34 35 36 37 38 39 40 41 42 43 44 45 46 47 48 49 50
000
ASUS43 KFGF 020910
RWRFGF
PRAIRIE TO PINES  WEATHER ROUNDUP
NATIONAL WEATHER SERVICE EASTERN NORTH DAKOTA/GRAND FORKS ND
400 AM CDT TUE JUN 02 2015

 **SATELLITE DATA USED TO AUGMENT SKY COVER AT AUTOMATED STATIONS**
 *****  WEATHER ACROSS EASTERN NORTH DAKOTA  *****

CITY           SKY/WX    TMP DP  RH WIND       PRES   REMARKS
GRAND FORKS    LGT RAIN  57  54  89 S8        29.85F
GRAND FRKS AFB LGT RAIN  57  54  88 S15       29.83F
GRAND FRKS NWS   N/A     55 N/A N/A S7          N/A
DEVILS LAKE    CLOUDY    63  55  77 E13       29.82R
FARGO          CLOUDY    63  46  54 SE15G25   29.87S
WAHPETON ARPT  CLOUDY    59  45  58 S14       29.89F
$$

 ***** WEATHER ACROSS CENTRAL AND WESTERN NORTH DAKOTA  *****

CITY           SKY/WX    TMP DP  RH WIND       PRES   REMARKS
BISMARCK       LGT RAIN  62  58  86 N7        29.84S
MINOT          CLOUDY    59  57  93 NW6       29.81R
JAMESTOWN      CLOUDY    64  54  69 S18       29.78F
MINOT AFB      CLOUDY    59  59 100 NE3       29.80R
GARRISON         N/A     61  57  87 E12       29.79F
WILLISTON      CLOUDY    63  56  78 NE12      29.82F
DICKINSON      LGT RAIN  59  56  89 NE17      29.82F
HETTINGER      CLOUDY    61  55  81 NE22G28   29.83R
$$

 *****  OTHER AIRPORT OBSERVATIONS IN OUR AREA  *****

CITY           SKY/WX    TMP DP  RH WIND       PRES   REMARKS
WALHALLA       FAIR      57  57 100 MISG      29.80F
GRAFTON AIRPOR FAIR      57  57 100 S13       29.83F
VALLEY CITY AR CLOUDY    64  55  72 SE10      29.82F
CANDO          FAIR      61  59  94 S17       29.79S
CAVALIER APRT  FAIR      57  55  94 S12       29.81F
GWINNER        NOT AVBL
SHEYENNE NWR     N/A     62  51  66 S12       29.95S
ROLLA          FOG       55  55 100 N3        29.84R VSB 1/4
 ***** THE ABOVE OBSERVATIONS ARE NON NWS ARE NOT QUALITY
       CONTROLLED AND MAY MIS-REPORT RAIN FOR SNOW...
$$

  *****  WEATHER ACROSS NORTHERN MINNESOTA  *****

CITY           SKY/WX    TMP DP  RH WIND       PRES   REMARKS
FLAG ISLAND    NOT AVBL
WARROAD        CLOUDY    57  46  67 S6        29.91F
ROSEAU         CLOUDY    59  46  63 S16       29.89F
HALLOCK        CLOUDY    57  54  88 S13       29.83F
THF RVR FALLS  CLOUDY    55  52  88 S13       29.91F
BAUDETTE       CLOUDY    58  41  53 S6        29.94S
WASKISH        CLOUDY    59  43  55 S12G24    29.93F
CROOKSTON      TSTM      55  54  94 SE8       29.91F
STEPHEN NDAWN    N/A     57  54  88 S16         N/A
GREENBUSH NDAW   N/A     57  52  82 S16         N/A
$$
  *****  WEATHER ACROSS CENTRAL AND WEST MINNESOTA  *****

CITY           SKY/WX    TMP DP  RH WIND       PRES   REMARKS
FOSSTON        CLOUDY    61  43  51 S15       29.92F THUNDER
BEMIDJI        CLOUDY    58  39  48 S10       29.97F
PARK RAPIDS    CLOUDY    57  39  51 S10       29.98S
ELBOW LAKE     FAIR      60  45  55 SE18      29.94F
WADENA         CLOUDY    57  39  51 S10       29.98F
DETROIT LAKES  CLOUDY    61  45  55 S12       29.95F
MOORHEAD       CLOUDY    63  46  55 SE18G24   29.88F
FERGUS FALLS   CLOUDY    63  46  55 S17       29.93F
MORRIS MN      MOCLDY    57  45  62 SE15      29.94F
STAPLES        MOCLDY    55  39  54 SE9       30.00F
$$
  *****  WEATHER ELSEWHERE ACROSS MINNESOTA  *****

CITY           SKY/WX    TMP DP  RH WIND       PRES   REMARKS
DULUTH         PTCLDY    44  31  60 SE6       30.10R
INTRNTL FALLS  CLOUDY    55  38  52 S7        29.98F
ELY            CLOUDY    54  37  54 S7        30.07S
CLOQUET        PTCLDY    39  34  81 E3        30.09S
WHEATON        CLOUDY    57  46  67 SE17      29.92F
BRAINERD       MOCLDY    55  42  61 S7        30.03F
HIBBING        CLOUDY    42  34  73 SE5       30.07S
ALEXANDRIA     CLOUDY    60  41  49 S13       30.00F
SAINT CLOUD    PTCLDY    55  42  61 SE7       30.05S
MINNEAPOLIS    PTCLDY    55  40  56 SE7       30.09S
$$

  *****  WEATHER ACROSS SOUTH DAKOTA  *****

CITY           SKY/WX    TMP DP  RH WIND       PRES   REMARKS
SIOUX FALLS    MOCLDY    60  51  72 S12       29.99R
BROOKINGS      CLOUDY    59  48  67 S13G18    29.98F
WATERTOWN      CLOUDY    60  51  72 S13       29.93F
HURON          CLOUDY    62  53  72 SE18G25   29.87F
SISSETON         N/A     60  51  72 S15       29.88F
ABERDEEN       MOCLDY    62  53  72 S18       29.83F
MITCHELL       MOCLDY    63  54  72 S18       29.90F
PIERRE         CLOUDY    65  60  84 SE17      29.76F
MOBRIDGE       CLOUDY    68  62  81 S16       29.73F
RAPID CITY     MOCLDY    62  53  72 SE5       29.80R
$$

  *****  SOME WEATHER IN NEARBY STATES *****

CITY           SKY/WX    TMP DP  RH WIND       PRES   REMARKS
GLASGOW MT     CLOUDY    63  42  46 N9        29.84R
GREAT FALLS MT MOCLDY    53  51  93 CALM      29.86F
CHEYENNE WY    CLEAR     54  48  80 S3        30.03F
SCOTTSBLUFF NE PTCLDY    60  53  77 S14       29.95R
OMAHA NE       CLOUDY    58  53  84 SE10      30.06R
DES MOINES IA  PTCLDY    57  51  80 SE6       30.10F
DAVENPORT IA   PTCLDY    50  45  83 SE7       30.18S
CHICAGO IL     CLEAR     45  38  76 N3        30.18R
EAU CLAIRE WI  MOCLDY    49  37  63 CALM      30.14S
LA CROSSE WI   PTCLDY    53  37  54 SE8       30.15F
$$

  *****  SOME NATIONAL WEATHER *****

CITY           SKY/WX    TMP DP  RH WIND       PRES   REMARKS
LA GUARDIA NY  CLOUDY    50  47  89 N10       30.09F
RALEIGH NC     MOCLDY    69  66  90 S5        29.99F
ATLANTA GA     CLOUDY    68  65  90 NW6       30.02R
NEW ORLEANS LA MOCLDY    74  69  85 CALM      29.99S
OKLAHOMA CITY  CLOUDY    66  62  87 S6        30.02F
ALBUQUERQUE NM PTCLDY    66  44  45 N6        30.14F
SALT LAKE CITY PTCLDY    63  52  67 CALM      29.88S
LOS ANGELES CA PTCLDY    60  56  86 CALM      29.99S
BOISE ID       PTCLDY    61  49  64 NW10      29.91R
SEATTLE WA     CLOUDY    56  52  86 S6        29.96S
$$

*** WEATHER ACROSS MANITOBA...SASKATCHEWAN AND ONTARIO ***
                ***ONTARIO***

CITY           SKY/WX    TMP DP  RH WIND       PRES   REMARKS
GERALDTON      PTCLDY    41  28  60 S6        30.13F
THUNDER BAY    CLOUDY    41  37  87 VRB2      30.15S
SIOUX LOOKOUT  CLOUDY    55  41  58 S8        29.98F
TORONTO        MOCLDY    46  45  93 N5        30.19R
BIG TROUT LK   CLOUDY    52  39  62 S8G17     29.79F
PICKLE LAKE    NOT AVBL
DRYDEN         CLOUDY    57  41  54 S14       29.95F
KENORA         LGT RAIN  55  46  71 S9        29.93F
$$
                *** MANITOBA***

CITY           SKY/WX    TMP DP  RH WIND       PRES   REMARKS
BRANDON        MOCLDY    50  50 100 CALM      29.84R FOG
DAUPHIN        CLEAR     55  46  71 W5        29.89R
ISLAND LAKE    MOCLDY    54  52  94 W10       29.76R
PILOT MOUND    NOT AVBL
THE PAS        PTCLDY    48  37  66 NW13      29.93R
THOMPSON       PTCLDY    41  39  93 W8        29.78S
WINNIPEG       MOCLDY    57  50  77 S12       29.84S
LYNN LAKE      CLEAR     37  30  75 NW15G31   29.81R
CHURCHILL      CLOUDY    46  43  87 W16G26    29.48S
GILLAM         PTCLDY    45  41  87 W12G17    29.68R
$$
                ***SASKATCHEWAN***

CITY           SKY/WX    TMP DP  RH WIND       PRES   REMARKS
ESTEVAN        CLOUDY    54  48  82 N8        29.86R
KINDERSLEY     MOCLDY    52  45  76 NE12      29.96S
LLOYDMINSTER   CLEAR     41  37  87 N8        30.01F
PRINCE ALBERT  NOT AVBL
REGINA         PTCLDY    52  45  76 NE10      29.91F
YORKTON        CLEAR     48  43  81 N9        29.91R
N. BATTLEFORD  CLEAR     45  43  93 SE3       30.04R
LA RONGE       CLEAR     37  30  75 W5        30.02R
SASKATOON      MOCLDY    48  43  81 NE12      30.01R
SWIFT CURRENT  CLEAR     52  43  71 E8        29.93S
$$
NOTE: THESE ARE AUTOMATED STATIONS WITH LIMITED QUALITY CONTROL
      "FAIR" INDICATES FEW OR NO CLOUDS BELOW 12,000 FEET WITH NO
      SIGNIFICANT WEATHER AND/OR OBSTRUCTIONS TO VISIBILITY.
      SKY/WX - SKY CONDITION AND SIGNIFICANT WEATHER.
      TMP - AIR TEMPERATURE.    DP   - DEWPOINT TEMPERATURE.
      RH  - RELATIVE HUMIDITY.  PRES - PRESSURE.
      HX  - HEAT INDEX.         WCI  - WIND CHILL INDEX.
$



USA.gov is the U.S. government's official web portal to all federal, state and local government web resources and services.